Sarasota, FL

12:26 AM EST on December 13, 2019 (GMT -0500)
Sarasota-bradenton

Weather History for KSRQ - October, 2019

Change the Weather History Date:

Wednesday, October 9, 2019

  Actual Average Record
Temperature  
Mean Temperature 82 °F 78 °F  
Max Temperature 89 °F 86 °F 94 °F (1919)
Min Temperature 75 °F 70 °F 54 °F (2000)
Degree Days  
Heating Degree Days 0 0  
Month to date heating degree days 0 0  
Since 1 July heating degree days 0 0  
Cooling Degree Days 17 13  
Month to date cooling degree days 169 126  
Year to date cooling degree days 3626 2915  
Growing Degree Days 32 (Base 50)    
Moisture  
Dew Point 74 °F    
Average Humidity 86    
Maximum Humidity 94    
Minimum Humidity 65    
Precipitation  
Precipitation 0.12 in 0.12 in 2.20 in (1953)
Month to date precipitation 0.34 1.14  
Year to date precipitation 43.72 46.57  
Sea Level Pressure  
Sea Level Pressure 29.92 in    
Wind  
Wind Speed 6 mph ()    
Max Wind Speed 15 mph    
Max Gust Speed 19 mph    
Visibility 9.9 miles    
Events Rain , Thunderstorm    
T = Trace of Precipitation, MM = Missing Value Source: Averaged Metar Reports

Daily Weather History Graph

Daily Weather History Graph

Search for Another Location

Airport or City:

Astronomy

Oct. 09, 2019 Rise Set
Actual Time 7:26 AM EDT 7:07 PM EDT
Civil Twilight 7:03 AM EDT 7:31 PM EDT
Nautical Twilight 6:36 AM EDT 7:58 PM EDT
Astronomical Twilight 6:09 AM EDT 8:25 PM EDT
Moon 5:11 PM EDT (10/9) 3:42 AM EDT (10/9)
Length of Visible Light 12h 27m
Length of Day
11h 41m
Waxing Gibbous, 85% of the Moon is Illuminated
Oct 9
Waxing Gibbous
Oct 13
Full
Oct 21
Last Quarter
Oct 27
New
Nov 4
First Quarter

Hourly Weather History & Observations

Time (EDT) Temp. Heat Index Dew Point Humidity Pressure Visibility Wind Dir Wind Speed Gust Speed Precip Events Conditions
12:53 AM 77.0 °F - 73.9 °F 90% 29.91 in 10.0 mi ENE 4.6 mph - N/A   Clear
1:24 AM 78.1 °F - 75.0 °F 90% 29.90 in 10.0 mi ENE 6.9 mph - N/A   Scattered Clouds
1:30 AM 78.1 °F - 75.0 °F 90% 29.90 in 10.0 mi NE 6.9 mph - N/A   Mostly Cloudy
1:53 AM 78.1 °F - 73.9 °F 87% 29.89 in 10.0 mi ENE 4.6 mph - N/A   Mostly Cloudy
2:03 AM 78.1 °F - 73.9 °F 87% 29.89 in 10.0 mi ENE 6.9 mph - N/A   Scattered Clouds
2:53 AM 77.0 °F - 73.9 °F 90% 29.88 in 10.0 mi ENE 5.8 mph - N/A   Clear
3:53 AM 77.0 °F - 73.9 °F 90% 29.88 in 10.0 mi ENE 4.6 mph - N/A   Clear
4:05 AM 77.0 °F - 73.9 °F 90% 29.87 in 10.0 mi ENE 5.8 mph - N/A   Partly Cloudy
4:53 AM 77.0 °F - 73.9 °F 90% 29.88 in 10.0 mi NE 4.6 mph - N/A   Clear
5:36 AM 77.0 °F - 73.9 °F 90% 29.89 in 10.0 mi ENE 5.8 mph - N/A   Partly Cloudy
5:53 AM 77.0 °F - 73.9 °F 90% 29.90 in 10.0 mi ENE 4.6 mph - N/A   Mostly Cloudy
6:53 AM 77.0 °F - 73.9 °F 90% 29.92 in 10.0 mi ENE 3.5 mph - N/A   Overcast
7:48 AM 77.0 °F - 73.4 °F 89% 29.92 in 10.0 mi East 5.8 mph - N/A   Scattered Clouds
7:53 AM 77.0 °F - 73.9 °F 90% 29.92 in 10.0 mi East 5.8 mph - N/A   Partly Cloudy
8:53 AM 78.1 °F - 75.0 °F 90% 29.94 in 10.0 mi East 5.8 mph - N/A   Clear
9:27 AM 80.1 °F 85.1 °F 75.0 °F 85% 29.94 in 10.0 mi East 6.9 mph - N/A   Scattered Clouds
9:53 AM 80.1 °F 85.1 °F 75.0 °F 85% 29.94 in 10.0 mi East 8.1 mph - N/A   Scattered Clouds
10:53 AM 82.9 °F 90.2 °F 75.0 °F 77% 29.96 in 10.0 mi ENE 6.9 mph - N/A   Scattered Clouds
11:53 AM 84.9 °F 93.3 °F 75.0 °F 72% 29.96 in 10.0 mi Variable 3.5 mph - N/A   Partly Cloudy
12:53 PM 86.0 °F 93.0 °F 73.0 °F 65% 29.95 in 10.0 mi Calm Calm - N/A   Scattered Clouds
1:35 PM 86.0 °F 95.1 °F 75.0 °F 70% 29.93 in 10.0 mi West 5.8 mph - N/A   Overcast
1:53 PM 84.0 °F 91.9 °F 75.0 °F 74% 29.93 in 8.0 mi NNE 3.5 mph - 0.00 in Rain Light Rain
2:53 PM 82.0 °F 87.4 °F 73.0 °F 74% 29.90 in 10.0 mi NNE 5.8 mph - 0.00 in   Scattered Clouds
3:05 PM 81.0 °F 86.2 °F 73.9 °F 79% 29.91 in 10.0 mi NE 9.2 mph 17.3 mph N/A Thunderstorm Thunderstorm
3:21 PM 80.1 °F 84.5 °F 73.9 °F 81% 29.91 in 10.0 mi NE 11.5 mph 18.4 mph N/A Thunderstorm Mostly Cloudy
3:39 PM 79.0 °F - 73.9 °F 84% 29.92 in 10.0 mi NE 8.1 mph - N/A   Mostly Cloudy
3:53 PM 78.1 °F - 73.0 °F 84% 29.93 in 10.0 mi North 8.1 mph - 0.00 in Rain Light Rain
4:53 PM 77.0 °F - 73.9 °F 90% 29.92 in 10.0 mi ENE 10.4 mph - 0.10 in Rain Light Rain
5:53 PM 77.0 °F - 73.0 °F 88% 29.91 in 10.0 mi ENE 15.0 mph - 0.00 in   Partly Cloudy
6:53 PM 77.0 °F - 73.0 °F 88% 29.92 in 10.0 mi NE 8.1 mph - N/A   Clear
7:09 PM 75.9 °F - 73.0 °F 91% 29.93 in 10.0 mi NE 6.9 mph - N/A   Partly Cloudy
7:53 PM 75.9 °F - 73.0 °F 91% 29.94 in 10.0 mi ENE 6.9 mph - 0.02 in Rain Light Rain
8:48 PM 75.2 °F - 73.4 °F 94% 29.95 in 10.0 mi ENE 6.9 mph - 0.00 in   Scattered Clouds
8:53 PM 75.9 °F - 73.0 °F 91% 29.96 in 10.0 mi ENE 8.1 mph - 0.00 in   Scattered Clouds
9:53 PM 75.9 °F - 73.0 °F 91% 29.99 in 10.0 mi NE 3.5 mph - N/A   Scattered Clouds
10:53 PM 75.9 °F - 73.0 °F 91% 29.97 in 10.0 mi East 8.1 mph - N/A   Partly Cloudy
11:53 PM 75.9 °F - 73.0 °F 91% 29.98 in 10.0 mi NNE 5.8 mph - N/A   Partly Cloudy